Wind_Speed
70 67 66 65 65 66 65 64 66 67 67 64 59 61 65 64 67 71 66 62 67 70 69 68 62 56 56 60 61 60 60 62 63 62 60 61 64 68 68 64 61 58 56 54 55 55 54 52 52 53 53 52 53 55 58 59 60 60 59 58 57 58 59 60 60 61 62 63 65 67 69 70 71 71 70 69 68 67 66 66 65 65 65 66 66 67 68
71 69 67 67 69 71 70 69 67 65 65 61 56 60 65 64 65 66 60 60 63 62 60 61 58 54 56 59 59 59 60 62 61 60 60 62 63 63 62 58 55 54 53 53 54 53 52 51 51 53 53 53 55 57 59 60 61 60 58 57 58 59 60 61 61 62 64 65 66 67 68 68 68 67 65 64 63 62 63 62 62 63 63 64 64 65 67
79 78 76 75 75 74 74 75 71 66 65 64 65 68 65 61 63 62 60 66 65 54 49 49 47 46 50 53 53 53 57 62 62 61 62 61 58 57 56 53 52 51 52 54 54 52 51 52 54 55 55 56 58 59 60 62 62 60 58 57 58 60 62 63 63 64 64 65 65 65 64 64 62 60 59 58 58 59 59 60 60 60 61 61 63 65 68
86 86 86 85 81 78 77 76 69 65 66 66 66 68 65 63 65 65 68 75 70 59 55 57 54 51 53 57 57 54 54 58 61 63 63 59 54 53 53 52 52 53 54 55 55 55 57 58 60 60 59 60 62 62 64 64 62 59 58 58 60 62 63 63 63 63 62 62 61 61 60 60 59 59 59 59 60 61 61 61 62 62 61 62 64 67 70
83 82 83 84 84 85 87 81 69 65 67 68 69 72 73 72 72 74 78 79 75 73 72 70 68 67 68 70 67 59 54 54 58 61 59 55 53 54 55 56 58 60 60 60 60 61 62 63 62 62 62 63 64 65 66 64 61 59 59 60 62 62 63 62 62 61 60 59 59 59 60 60 60 61 63 64 64 64 63 63 63 63 63 64 66 70 73
78 77 76 80 87 93 93 86 78 75 75 75 77 80 82 82 82 84 86 85 84 85 80 75 76 78 77 75 66 55 51 51 53 55 55 56 59 62 63 63 63 64 63 62 62 62 63 62 61 61 62 64 65 66 65 62 61 60 60 61 63 63 63 63 62 61 61 61 62 62 63 64 64 66 66 66 65 64 63 63 63 64 65 67 70 73 75
80 77 75 81 91 94 90 87 84 81 80 80 82 84 84 83 83 86 88 89 87 84 79 77 79 78 75 68 59 53 51 50 51 56 60 63 65 64 64 65 64 64 64 63 64 64 63 62 60 60 62 64 66 65 64 63 62 61 61 62 64 65 66 67 67 66 66 66 67 67 68 67 66 65 64 63 62 61 61 62 63 64 66 67 68 69 70
81 80 80 86 90 88 86 85 83 80 82 83 83 84 83 79 77 79 81 81 79 76 75 77 78 73 65 59 55 53 52 51 55 62 64 62 61 62 64 65 65 66 66 66 65 64 62 60 59 60 63 65 66 66 66 66 64 62 62 64 66 69 71 72 73 72 71 70 69 67 65 64 62 59 58 58 58 58 59 61 63 65 66 67 66 65 67
81 81 84 86 86 84 83 83 81 80 81 78 76 81 84 79 73 73 74 73 72 73 74 74 72 66 60 59 58 55 54 57 62 64 61 57 57 62 66 68 68 67 66 66 65 63 62 61 61 63 65 67 68 69 69 67 64 64 65 67 70 71 72 73 73 71 69 67 64 62 59 58 57 55 54 55 56 57 59 62 65 68 70 69 66 65 67
80 80 82 84 86 89 88 85 83 82 79 74 72 78 84 79 71 69 71 72 73 74 73 68 64 62 63 66 64 60 59 60 58 56 56 57 59 63 65 67 67 64 62 62 63 63 63 63 64 65 66 68 69 69 68 66 65 65 66 68 69 69 69 69 68 65 63 61 59 57 56 55 54 54 55 56 58 59 60 63 65 67 69 68 65 63 64
84 85 89 91 92 94 92 88 84 80 76 73 71 76 86 85 76 72 73 72 72 73 70 64 61 63 70 73 70 66 62 57 53 55 59 62 64 65 64 62 60 59 60 61 63 65 66 65 65 66 67 68 68 68 67 67 65 62 62 65 66 66 66 66 64 61 59 57 55 54 53 55 56 57 59 60 60 61 62 63 65 67 68 67 66 64 63
86 87 88 89 89 89 87 83 80 77 73 68 68 77 87 85 77 72 71 70 70 70 69 66 62 63 68 71 69 65 60 57 58 61 66 68 67 66 64 61 58 59 62 64 67 69 70 70 69 69 69 70 70 69 68 66 62 58 59 62 63 64 65 64 61 59 56 53 53 54 57 60 61 61 61 61 62 64 66 67 69 69 67 65 64 65 65
81 81 81 83 84 84 82 80 78 74 70 67 71 77 79 74 69 68 68 68 68 67 66 65 64 63 63 64 64 63 63 64 67 72 76 78 76 71 68 66 66 68 68 70 73 74 74 73 71 69 69 68 67 65 63 61 59 58 59 60 61 64 65 64 60 57 54 53 54 57 60 62 62 62 64 65 67 69 71 71 71 70 67 65 65 65 66
85 84 85 87 88 87 86 83 78 72 69 70 74 75 73 70 69 68 67 66 67 67 66 66 67 68 67 67 68 69 69 71 74 77 78 77 73 68 66 66 70 73 73 75 77 75 72 69 66 64 63 63 62 61 60 59 60 60 61 61 62 64 64 63 60 58 57 57 58 59 62 64 64 66 68 70 73 74 74 74 73 70 67 66 66 67 66
90 89 87 85 84 82 79 75 70 66 65 67 70 71 71 70 69 67 66 65 65 66 67 68 70 71 72 73 73 72 71 68 65 61 59 59 59 60 60 62 65 69 71 72 72 69 65 61 60 60 61 61 61 60 60 60 61 63 63 62 61 60 60 60 60 62 63 63 62 63 66 67 68 70 72 75 77 76 74 74 72 70 68 68 69 68 66
89 90 88 85 83 80 75 71 70 69 67 67 68 69 68 67 65 64 63 63 64 66 68 70 70 69 70 71 72 71 67 62 57 55 56 59 62 64 63 62 63 66 68 66 64 62 60 58 58 58 59 60 60 61 62 62 62 61 59 56 54 54 55 58 61 65 66 66 66 67 70 71 71 73 75 78 78 74 70 70 69 68 68 69 68 66 64
81 86 87 87 85 82 77 72 71 71 69 67 67 68 69 70 69 66 65 65 67 66 66 67 67 67 68 68 68 66 63 60 60 62 63 62 64 65 64 63 62 64 66 64 61 61 61 61 61 60 60 62 63 63 62 59 57 56 55 55 56 57 58 60 64 66 67 69 70 71 72 73 74 76 77 77 75 71 68 66 66 66 66 66 64 62 63
73 74 74 73 73 73 71 67 68 71 70 67 68 71 71 71 70 69 69 70 70 69 68 69 70 72 72 70 67 65 64 63 63 62 62 62 64 65 67 66 65 65 66 65 63 63 64 65 65 64 64 66 66 62 56 52 52 54 57 61 64 65 65 66 66 67 70 72 74 74 73 74 76 77 79 77 74 71 69 67 66 65 64 62 60 61 64
83 81 77 75 76 78 78 77 78 78 71 63 64 67 67 67 71 74 75 75 75 74 74 75 76 75 73 70 67 65 63 62 61 62 65 68 69 69 68 67 65 65 66 67 67 68 69 70 70 69 69 69 66 59 53 51 54 58 62 67 69 69 69 70 70 71 72 74 75 75 75 77 78 78 79 78 75 72 70 69 67 65 63 60 59 61 64
94 93 92 90 87 85 83 82 82 81 74 67 65 66 67 71 78 82 81 80 79 77 77 77 78 78 76 73 69 65 64 64 66 69 71 71 71 70 68 66 65 66 69 71 72 74 75 76 76 74 72 71 66 60 56 56 59 63 68 72 73 73 73 73 74 75 76 77 79 80 81 82 82 81 81 81 79 75 72 71 69 65 62 62 61 61 65
96 95 96 96 95 91 86 81 79 79 79 78 79 79 79 81 82 80 77 76 75 75 76 78 81 82 82 80 76 73 71 70 69 69 69 69 69 68 66 66 67 69 72 74 76 78 79 79 78 76 74 72 69 65 64 65 67 71 75 77 78 78 78 78 80 82 83 85 87 88 89 89 88 86 84 83 81 76 73 72 70 65 63 64 64 64 66
98 97 98 100 102 101 97 93 91 91 89 89 91 91 90 89 86 82 79 77 75 75 75 76 79 83 85 87 87 86 83 78 72 69 68 68 68 67 67 69 72 74 76 77 78 79 80 79 77 74 72 70 68 68 70 72 74 76 78 79 81 81 82 83 86 89 91 94 96 96 96 95 93 91 87 84 81 76 71 71 69 65 62 64 66 67 67
96 97 99 101 103 103 102 101 102 101 97 94 93 91 90 91 90 88 86 86 86 85 82 80 79 81 83 86 90 91 89 83 78 74 73 72 73 74 72 72 76 80 83 84 83 81 81 80 78 74 71 69 69 70 72 75 76 77 79 81 82 83 84 87 90 93 98 102 103 102 101 98 95 92 88 83 79 74 69 69 68 64 62 64 67 68 68
94 96 99 101 103 104 103 103 103 103 101 98 96 94 94 93 91 88 86 87 88 90 90 88 84 81 79 79 80 82 82 79 78 80 80 78 78 79 76 76 81 87 90 90 88 86 86 87 87 85 83 82 80 80 81 81 80 81 82 82 83 84 87 90 94 99 104 107 107 105 102 98 95 91 85 81 77 72 69 69 68 65 65 67 68 68 66
88 92 95 98 101 103 104 105 106 106 105 105 104 103 102 101 99 96 93 91 90 92 96 97 95 92 89 85 83 84 85 86 88 90 89 85 81 79 81 87 94 96 96 97 96 93 91 92 92 91 91 92 91 89 87 86 84 84 85 86 87 88 90 93 98 106 110 109 107 104 100 96 92 86 82 79 76 71 69 69 68 67 68 67 66 66 65
79 83 87 91 94 97 101 104 106 108 109 109 110 110 110 112 113 112 110 107 105 103 104 105 106 107 107 106 104 102 102 102 99 94 92 91 88 88 94 103 108 106 102 102 101 98 96 95 95 94 95 95 95 92 90 89 90 91 92 93 93 93 94 99 107 112 111 107 104 100 96 92 87 81 79 78 74 70 69 69 68 68 67 65 65 65 64
74 76 80 84 86 89 92 96 100 104 106 108 110 112 113 115 118 120 121 120 119 117 115 114 114 114 115 117 118 118 116 115 111 105 101 100 100 101 107 115 120 118 113 108 104 102 100 99 99 98 98 98 98 98 97 97 99 99 98 98 98 101 106 111 113 112 107 103 99 95 90 86 81 77 76 74 71 68 69 69 68 68 67 66 65 64 60
72 74 77 80 83 85 86 89 91 94 96 99 102 105 108 110 112 115 117 118 119 119 118 117 117 117 117 117 118 119 119 118 118 117 115 113 113 116 121 126 128 126 120 113 107 105 104 103 103 102 102 102 103 105 106 106 106 105 105 106 110 114 115 113 110 106 102 99 95 90 85 81 77 74 73 71 68 67 69 70 70 70 68 65 63 61 57
66 69 71 74 77 79 81 82 85 86 88 90 93 96 99 102 104 105 107 108 110 111 112 114 116 117 118 118 118 120 121 121 122 124 125 126 128 130 131 130 126 121 116 111 108 106 106 107 107 107 108 108 110 111 113 113 114 115 116 118 119 116 111 106 102 99 96 94 90 85 81 77 74 71 70 69 68 68 69 69 69 68 65 62 60 56 53
60 62 65 67 69 71 72 74 76 78 80 83 85 87 90 94 97 98 99 99 100 101 103 104 107 109 112 114 115 117 118 120 122 123 124 125 125 123 120 116 113 110 108 105 104 104 105 107 108 109 110 111 112 113 114 115 116 117 117 115 111 106 100 96 92 89 86 85 82 79 76 73 70 67 67 66 65 65 65 65 65 64 62 59 54 51 49
56 57 59 62 64 65 66 67 69 71 74 77 80 81 83 86 88 90 91 91 92 93 94 96 97 99 100 102 104 105 107 108 109 109 109 108 107 105 102 101 100 99 98 97 97 98 99 100 102 103 104 104 104 104 104 104 102 100 97 94 91 87 84 80 76 74 74 74 72 71 70 68 65 64 63 63 63 63 64 66 66 64 59 53 49 47 46
52 54 56 58 60 62 63 65 66 68 69 71 73 75 77 78 80 80 81 82 82 83 85 86 86 86 87 87 88 89 91 92 92 92 91 90 88 86 85 84 83 83 82 82 82 82 84 85 86 87 87 86 86 84 83 81 78 76 74 73 71 69 67 65 63 63 63 63 62 62 63 62 61 60 61 62 64 65 66 65 62 57 51 48 46 44 42
52 54 54 56 58 59 60 61 63 65 66 67 67 68 69 70 71 72 72 73 73 73 74 74 74 74 75 75 75 75 76 77 77 76 74 73 70 68 66 66 65 65 64 64 64 64 66 67 67 67 66 65 63 62 61 60 59 59 60 61 60 58 55 53 52 52 53 54 55 56 57 58 59 61 63 65 65 63 60 56 52 49 47 45 42 39 37
51 53 55 56 58 59 60 60 61 62 63 63 62 62 62 62 63 64 65 65 65 64 64 64 65 65 65 65 65 65 65 64 64 62 60 58 56 55 54 53 53 52 53 53 53 53 53 52 51 50 49 49 49 49 49 49 49 50 53 55 55 53 49 45 44 45 47 50 53 56 58 61 63 65 65 62 57 53 50 49 47 45 43 40 37 35 35
49 51 52 54 56 58 60 60 61 62 62 61 60 59 58 57 57 58 59 59 59 58 58 58 58 58 58 58 57 56 55 54 53 51 50 48 48 47 46 45 45 45 46 47 48 48 45 42 40 41 42 44 45 45 43 44 46 48 50 50 47 45 43 42 43 46 50 55 58 60 61 61 61 60 56 51 48 46 46 45 43 41 38 36 34 33 33
49 50 51 52 54 56 58 59 60 61 61 60 59 57 56 55 55 55 56 55 54 53 52 51 51 51 51 51 51 50 50 49 48 46 44 42 41 40 40 40 41 42 43 44 46 45 41 39 40 43 44 45 43 41 39 41 44 45 44 40 37 37 40 43 46 50 56 59 57 55 53 52 50 49 47 45 44 43 42 40 39 37 34 33 32 32 32
50 51 51 52 53 55 57 59 60 60 58 57 56 55 53 52 52 52 51 50 48 47 47 47 48 48 48 48 48 48 48 47 45 42 40 38 37 38 38 39 39 40 41 43 44 44 42 42 44 45 45 43 40 38 36 37 39 39 36 34 34 35 39 45 48 51 54 53 48 44 42 42 42 43 42 41 39 38 38 36 35 33 32 31 31 31 30
50 51 52 52 53 54 55 57 58 58 56 53 51 50 50 49 49 49 49 47 45 45 45 46 47 48 48 48 47 47 47 47 45 41 39 38 37 37 37 39 40 41 41 42 42 44 45 45 44 42 41 39 37 35 34 35 36 34 33 35 35 34 36 41 44 44 43 40 37 36 36 38 38 38 37 35 35 35 34 33 32 30 30 30 29 29 29
49 50 51 51 51 52 53 54 54 53 52 49 47 45 45 47 47 47 47 46 45 46 47 48 49 49 49 48 47 46 46 45 43 41 40 40 40 39 39 40 41 41 41 41 42 44 45 42 39 37 36 34 32 31 32 35 35 33 30 32 34 34 34 35 34 33 32 31 32 34 35 35 34 33 32 32 32 32 31 30 30 29 29 29 29 29 30
49 48 48 48 49 50 50 49 47 45 43 42 41 41 42 45 46 46 46 47 47 48 49 49 49 49 48 47 45 43 42 41 41 41 41 40 40 40 41 41 41 40 40 40 41 42 42 38 34 33 32 30 29 30 33 35 37 35 32 31 32 33 33 33 30 28 28 29 31 32 32 31 30 30 30 30 30 30 29 29 29 29 29 30 30 30 31
46 46 46 46 46 45 43 41 38 36 35 36 38 40 41 43 44 44 45 46 47 48 48 48 47 46 45 43 41 40 39 40 40 41 40 38 37 37 38 39 39 39 38 38 39 41 40 36 32 31 30 30 30 31 33 34 36 36 34 33 33 33 33 34 32 30 29 30 30 29 29 28 29 29 29 29 29 28 28 28 29 29 30 30 30 31 32
44 43 43 41 39 36 33 31 29 29 30 32 35 37 39 41 43 44 45 46 46 46 46 45 44 42 39 38 37 36 35 36 36 35 34 33 32 33 34 35 34 34 35 37 38 39 37 34 30 28 28 29 29 30 32 34 36 35 34 34 33 31 29 28 28 27 27 27 26 27 28 28 28 28 28 28 28 28 28 28 29 30 30 30 30 31 32
39 38 36 32 28 25 24 24 25 26 27 29 32 35 37 38 40 41 41 40 39 38 37 37 35 33 30 29 28 27 27 27 28 29 28 28 27 27 28 29 29 31 33 34 34 33 32 28 26 25 27 27 27 28 30 35 39 38 35 32 30 27 24 23 23 24 24 24 25 27 27 27 27 27 27 27 27 27 28 28 29 29 29 30 30 32 33
32 30 26 22 20 19 20 21 23 24 24 25 28 30 31 31 31 30 29 27 26 25 24 23 22 21 19 19 19 19 20 20 21 21 21 21 21 22 22 23 24 26 28 27 26 25 23 22 23 25 26 26 27 29 32 37 39 36 31 26 23 21 21 21 23 24 24 25 26 27 27 27 26 26 26 25 26 27 27 27 28 28 29 30 31 33 35
24 21 18 17 17 17 18 19 20 21 21 22 23 23 23 22 22 21 19 17 16 15 14 13 12 11 11 11 11 12 13 13 14 15 16 17 18 19 17 16 17 19 20 20 21 21 21 22 24 25 24 24 27 30 32 31 29 25 21 20 20 21 22 22 23 24 25 25 26 26 26 26 25 24 24 25 26 26 26 27 28 29 30 31 33 35 36
16 15 15 16 15 15 16 17 18 18 18 17 17 17 16 17 17 16 14 14 15 13 10 8 7 7 6 7 6 7 8 9 11 12 13 13 13 12 11 10 12 14 17 18 19 20 20 20 19 17 18 21 25 26 24 22 19 18 19 19 20 21 22 23 23 24 25 26 26 25 25 24 23 24 24 25 26 26 27 28 29 30 32 33 35 36 36
13 14 15 14 12 12 13 15 15 15 14 13 13 14 14 15 15 14 14 14 15 14 11 10 8 6 5 4 5 6 7 8 8 8 8 7 7 8 8 9 10 11 12 13 13 13 13 11 12 14 18 21 21 20 18 18 18 18 18 19 20 21 21 22 23 24 24 24 24 24 24 23 24 24 25 25 26 27 28 29 31 32 34 35 36 36 37
13 12 10 8 7 8 10 11 10 10 10 10 10 10 11 12 12 13 12 13 13 13 12 10 9 8 7 6 6 7 7 8 8 8 6 4 3 3 4 4 3 3 1 1 1 3 6 10 13 15 17 17 18 18 18 18 17 17 17 18 19 19 20 21 22 22 22 23 23 23 23 24 24 25 25 26 27 29 30 32 33 34 35 36 37 37 38
9 6 4 3 3 4 6 6 6 7 8 8 8 9 9 10 9 9 9 8 8 8 8 8 8 8 8 8 8 8 8 8 8 9 9 9 8 7 7 7 8 9 11 13 13 13 14 16 17 18 19 19 19 17 16 16 15 15 15 16 16 17 18 19 20 21 22 22 22 23 24 24 25 25 26 27 29 31 33 34 35 36 37 37 38 38 39
4 2 2 2 0 1 3 4 6 7 8 9 10 11 11 11 10 9 9 9 10 11 11 12 12 11 11 10 10 10 10 11 12 14 16 16 14 13 13 14 15 15 16 17 18 17 17 18 18 18 18 17 16 15 14 13 12 12 13 14 15 16 18 19 20 21 21 22 22 23 24 25 25 26 28 30 32 34 36 37 38 38 38 39 39 40 41
4 4 4 4 3 3 4 5 6 7 9 11 12 13 14 14 15 15 16 17 18 19 19 20 19 19 18 17 17 17 17 17 17 17 17 16 16 16 16 17 17 17 17 17 18 19 18 17 17 16 15 14 13 12 11 11 11 12 13 14 16 17 18 18 19 20 21 22 23 24 25 26 28 29 31 33 35 37 38 39 39 39 40 40 41 43 44
6 7 7 6 4 4 5 6 7 8 10 12 13 13 13 14 15 16 18 19 20 21 22 22 22 22 21 21 20 20 20 20 19 18 18 18 18 18 18 18 18 18 17 17 17 17 17 15 14 13 12 11 10 9 9 10 11 12 13 14 15 16 17 18 19 21 22 24 25 27 28 30 32 33 35 37 38 39 40 40 41 41 42 43 44 46 47
Wind_Direction
275 272 271 272 274 273 269 267 267 265 261 260 263 265 266 266 266 269 273 275 274 274 276 277 277 276 276 276 275 274 272 269 268 270 274 276 276 276 275 273 272 271 270 270 271 271 272 274 278 281 284 283 281 281 281 282 284 288 290 291 291 291 290 289 289 288 288 287 286 286 286 286 286 286 286 286 285 284 284 283 283 283 283 283 284 284 285
272 269 269 270 273 274 273 270 271 270 265 260 260 262 262 262 266 273 280 280 277 277 278 279 279 278 276 276 274 272 271 271 270 271 274 275 272 270 268 267 268 269 269 269 270 271 273 276 280 284 285 281 278 278 280 282 286 288 289 290 290 289 288 288 287 287 286 285 284 284 284 285 285 285 286 286 286 287 287 286 286 285 285 285 286 286 287
272 273 275 274 274 273 271 269 268 268 268 268 267 264 263 266 272 277 281 282 281 280 283 286 285 281 283 284 282 279 277 274 272 272 272 270 265 262 262 266 271 272 270 271 273 275 277 280 283 285 283 277 276 278 280 283 286 287 287 288 288 287 286 286 285 284 283 283 283 283 282 283 284 285 286 287 289 290 290 290 290 289 288 288 288 288 287
273 275 276 276 274 270 267 264 262 263 268 273 274 269 266 269 272 274 277 281 283 285 287 288 284 285 291 295 293 291 286 277 271 270 269 264 259 258 261 267 274 276 278 280 281 282 284 285 286 285 280 276 276 278 281 283 285 285 286 286 285 284 284 283 282 282 281 281 281 281 281 282 283 284 286 287 289 291 292 292 291 290 288 288 288 287 287
276 277 277 277 274 270 266 263 262 265 269 272 272 270 270 272 273 274 275 278 282 286 286 285 284 287 291 293 293 290 285 277 272 268 263 259 262 268 272 275 278 281 285 287 287 286 287 287 286 283 278 276 276 278 281 283 284 284 284 285 284 282 281 281 280 280 279 280 280 280 282 282 283 285 286 288 290 292 292 291 290 289 289 288 288 288 289
277 279 279 277 274 271 271 271 271 271 271 271 270 270 271 272 272 273 274 277 282 285 285 284 286 287 287 290 290 283 274 272 271 267 264 268 275 282 284 285 284 285 286 288 288 287 287 287 285 280 276 274 275 277 280 281 282 282 283 283 283 282 281 280 280 279 279 280 281 282 284 285 286 287 289 290 291 292 291 290 290 290 290 290 291 291 292
280 282 280 275 272 275 278 280 279 277 276 276 275 275 274 273 273 273 274 276 280 281 281 281 284 285 286 287 284 273 265 264 266 268 272 278 282 285 285 285 285 285 285 286 286 286 286 285 282 278 275 274 275 277 279 280 281 282 282 282 283 283 283 283 282 281 281 282 284 286 287 288 289 289 290 291 291 291 290 289 289 290 291 293 294 295 296
280 280 277 274 276 281 283 281 280 280 281 281 282 282 280 278 277 276 275 275 276 277 277 279 281 284 284 279 272 265 263 265 270 276 279 280 281 282 282 282 283 283 284 284 283 283 283 281 278 276 274 274 275 277 278 279 281 281 282 283 284 285 286 286 285 285 285 286 287 288 289 290 290 290 290 290 290 290 289 289 290 291 293 295 297 298 299
277 277 278 278 280 281 280 279 281 284 285 286 286 285 283 281 278 276 276 276 277 279 280 280 282 281 275 268 264 264 266 270 274 277 277 279 281 281 281 282 283 282 281 280 281 281 280 278 276 274 272 272 273 275 277 279 280 281 282 284 285 286 287 287 286 287 287 287 287 289 290 289 287 287 288 291 291 290 289 288 289 291 293 295 299 300 299
275 276 277 279 279 279 280 282 285 286 287 287 288 286 283 280 277 277 279 280 281 282 282 280 279 275 268 264 264 267 269 271 272 270 271 277 281 280 280 281 281 278 277 277 278 279 277 275 273 271 269 269 270 272 275 277 279 281 283 284 285 286 286 286 286 286 286 286 288 290 289 286 284 285 289 292 291 290 289 289 290 292 293 296 298 300 299
274 275 276 277 279 280 282 284 285 286 287 289 289 284 280 280 283 285 286 284 282 281 281 280 276 269 265 265 266 268 267 263 261 263 269 276 280 279 276 274 273 273 273 274 274 274 273 271 269 267 266 267 269 272 274 276 279 281 282 283 284 285 285 284 284 284 285 287 290 290 288 287 288 291 293 293 291 290 291 292 293 295 296 297 298 299 300
276 277 278 279 280 281 283 284 285 286 288 288 283 278 280 286 290 289 285 283 281 280 280 278 273 267 265 266 266 264 259 255 256 264 271 276 279 276 270 267 267 269 270 271 271 271 270 268 267 267 269 270 273 274 275 276 277 278 280 282 283 283 281 280 281 283 285 287 289 288 289 291 294 295 296 294 293 292 293 294 296 296 296 297 298 299 299
275 276 278 279 280 281 283 285 285 285 285 282 277 276 281 286 285 281 279 278 278 277 275 273 270 266 264 262 261 259 257 257 261 267 271 275 276 273 269 267 269 270 270 269 269 269 268 267 269 270 271 272 273 273 273 274 275 278 280 282 282 281 279 278 280 282 284 286 287 289 292 293 293 294 296 295 294 294 294 294 296 296 295 296 298 298 297
272 273 275 276 277 279 280 281 281 281 280 276 274 274 276 275 273 273 273 273 273 273 271 271 270 269 267 265 264 264 265 266 269 271 273 274 274 272 271 273 274 274 272 270 269 268 268 268 270 272 272 271 271 270 272 275 277 279 281 281 280 279 278 278 279 281 283 284 285 289 292 291 291 293 296 297 297 295 292 293 294 294 295 296 298 297 296
271 273 274 275 276 277 278 279 279 278 274 270 269 269 269 270 271 271 269 268 268 269 269 270 271 272 273 272 272 272 273 274 274 274 274 273 272 271 274 280 282 279 273 269 267 267 267 268 270 271 271 270 269 272 276 279 278 279 281 280 278 278 277 278 279 280 281 281 282 288 292 292 291 292 294 297 299 296 291 291 292 292 294 296 297 296 295
268 269 270 271 272 274 275 276 276 275 272 269 268 267 267 268 268 266 266 267 268 269 270 270 269 270 271 272 272 274 275 274 273 273 274 275 275 275 278 284 286 280 273 268 264 263 264 267 271 272 269 267 270 275 279 278 277 277 277 277 279 281 281 279 280 280 281 282 283 289 294 294 293 292 293 297 300 297 292 291 291 291 294 297 297 295 295
262 262 265 267 268 269 271 271 271 272 271 268 266 264 263 263 263 261 262 265 268 268 267 266 266 267 268 269 269 269 270 269 270 272 276 278 280 281 283 286 286 279 272 267 264 263 264 267 270 270 268 268 272 275 274 273 273 274 274 276 282 286 285 282 282 282 283 284 285 288 293 295 295 293 294 298 301 299 294 292 291 292 294 297 297 296 296
255 254 258 261 263 264 266 267 268 270 268 265 261 257 256 258 260 262 264 266 266 265 263 264 267 268 268 267 266 266 266 267 268 272 277 281 284 285 287 288 285 278 272 269 267 265 265 266 268 268 267 269 272 270 267 267 271 274 276 280 284 285 285 284 284 283 284 285 285 286 290 294 296 295 294 297 301 300 294 291 291 292 293 296 298 298 298
254 253 254 257 261 263 265 267 268 266 262 257 254 252 252 256 262 267 269 268 266 265 264 265 267 268 266 265 264 264 264 264 267 272 277 280 283 285 286 286 282 276 272 271 270 269 268 268 268 267 266 268 268 263 260 264 269 274 279 283 285 285 285 286 286 286 287 288 288 287 289 293 296 296 294 294 298 299 295 290 290 290 292 296 299 299 298
253 254 254 256 259 261 263 264 262 257 252 250 250 252 257 262 267 270 270 267 264 263 264 265 266 266 265 263 261 261 261 262 267 272 275 277 280 282 283 281 278 275 274 272 271 271 270 270 268 265 265 265 263 259 259 264 269 274 279 283 284 285 286 287 288 288 289 290 290 290 291 293 295 296 294 293 295 296 294 290 287 289 292 296 298 299 298
253 253 253 254 255 255 255 256 255 252 252 255 259 261 263 264 264 264 261 258 256 256 258 261 263 264 264 263 261 260 260 263 266 270 274 276 277 279 279 278 277 278 278 276 273 271 269 267 265 263 262 261 259 258 261 266 270 274 277 280 282 284 286 287 289 290 291 292 292 292 292 293 294 295 294 293 292 294 292 289 286 287 290 292 294 296 296
255 254 253 254 254 253 252 252 254 256 258 260 262 263 264 262 260 257 255 253 252 253 255 256 258 259 260 261 260 260 261 262 263 266 271 273 275 277 277 278 280 282 282 280 277 273 268 264 261 261 260 258 257 260 263 267 270 273 275 277 279 282 284 287 289 290 291 292 292 292 292 293 293 293 293 292 291 291 290 287 285 286 287 289 290 292 292
256 255 254 253 254 254 253 252 254 256 258 259 259 258 258 257 255 254 254 256 257 258 258 256 254 253 254 255 256 257 259 259 260 264 267 269 272 274 275 277 281 282 282 282 280 275 269 264 262 261 258 255 254 257 260 263 266 269 271 273 275 278 281 284 286 288 290 291 291 290 290 291 291 291 291 290 289 289 288 285 284 286 287 287 288 288 288
256 255 255 255 255 255 255 255 255 255 256 257 257 256 256 255 252 251 252 255 256 258 259 257 255 253 251 250 251 252 253 254 258 264 267 267 267 268 269 274 280 282 281 280 279 276 272 267 264 262 259 256 255 257 259 260 263 265 268 270 273 276 279 281 284 286 288 288 288 287 287 288 289 288 288 287 287 286 285 283 282 284 287 287 286 286 286
258 257 257 257 257 257 256 256 256 256 256 256 256 257 258 257 256 255 256 256 256 258 260 261 260 258 255 254 253 254 255 256 260 264 266 264 261 260 263 271 279 280 279 278 277 275 273 269 265 262 260 258 257 258 259 260 261 263 266 269 271 274 276 278 282 285 286 286 285 285 285 286 286 285 285 285 284 284 283 281 280 281 285 286 285 284 283
263 261 260 259 259 259 259 258 258 257 258 257 257 257 258 259 261 261 262 261 260 261 262 263 263 262 261 260 260 259 260 260 261 262 262 259 256 257 263 271 278 280 278 276 273 272 270 268 265 263 261 259 257 257 258 259 261 264 267 270 272 273 275 278 281 283 283 283 283 283 283 283 283 281 281 282 283 282 281 280 278 279 282 284 283 281 280
267 266 265 263 262 261 260 261 261 260 260 260 260 259 259 259 260 262 263 263 264 264 263 263 263 262 261 261 261 262 262 262 262 261 261 260 259 261 266 272 277 279 277 274 271 268 267 266 264 263 263 260 258 257 258 260 263 265 267 269 271 273 276 279 280 281 280 280 280 279 279 279 279 277 278 281 282 280 279 278 278 279 281 281 280 278 277
273 270 269 269 267 264 262 262 263 263 263 262 262 261 261 261 261 262 262 263 263 264 264 263 262 261 260 260 260 261 263 264 264 264 265 265 266 267 270 274 276 276 275 273 269 267 266 265 264 263 264 263 263 262 263 264 265 267 269 271 273 275 277 278 278 278 277 277 276 276 275 275 274 273 275 278 278 277 277 277 277 277 277 276 276 275 274
277 275 273 272 271 269 267 265 264 264 264 264 264 263 263 263 262 262 263 263 263 263 263 263 263 263 263 263 263 263 264 265 266 267 268 269 270 272 274 275 275 274 273 271 269 266 265 264 264 264 265 266 266 266 267 267 267 269 271 273 275 277 277 277 276 275 274 273 272 271 271 270 270 271 272 273 274 274 274 273 273 273 273 273 272 272 272
276 275 274 273 273 272 271 269 267 266 265 265 264 264 264 264 263 263 263 264 264 265 265 265 265 265 266 266 267 267 268 268 268 269 269 270 271 272 273 273 273 273 272 270 269 268 266 266 266 266 267 267 268 268 268 269 270 271 273 274 275 275 275 274 273 271 269 268 267 267 266 266 267 268 269 270 270 272 273 274 274 273 271 269 269 269 269
273 272 272 271 271 271 270 269 268 267 266 265 265 265 265 265 265 265 265 265 265 266 266 267 267 267 268 268 269 269 269 270 270 270 270 271 271 272 273 273 273 273 273 272 271 270 269 268 268 268 268 269 269 269 270 271 272 273 273 273 273 273 272 270 267 265 264 263 263 262 262 262 263 264 265 266 268 270 272 272 271 269 267 266 267 267 266
274 272 270 270 270 269 269 269 269 268 268 267 267 267 268 268 268 268 268 268 268 268 268 268 269 269 269 269 270 270 270 271 271 272 272 273 274 274 275 275 275 274 274 273 272 271 270 270 269 269 269 269 269 270 271 271 271 271 270 270 269 268 266 263 260 260 260 260 259 259 259 259 260 261 262 263 265 265 265 264 264 263 263 264 264 263 262
276 274 272 271 271 270 270 270 271 271 271 270 270 271 271 272 272 272 272 272 271 271 271 271 271 272 272 273 273 273 274 274 275 275 276 277 277 277 277 276 276 275 275 274 273 272 271 271 270 270 269 269 269 268 267 267 266 265 265 265 264 261 258 258 258 258 257 255 255 255 256 256 256 256 256 258 259 260 260 261 260 260 259 259 259 258 259
279 278 277 275 275 274 273 272 271 272 272 273 273 274 275 275 276 276 276 277 277 276 276 276 276 276 277 277 277 278 279 279 279 280 280 281 281 280 279 278 277 276 275 273 272 271 271 270 269 267 265 264 263 261 261 263 264 264 265 265 260 254 251 252 253 253 252 250 250 251 252 252 251 251 252 254 256 258 259 257 255 254 254 254 254 256 259
281 281 280 280 280 279 278 277 275 274 274 274 274 275 275 276 277 277 278 279 280 281 281 281 280 280 280 280 281 281 281 281 281 281 281 280 279 278 276 275 274 274 272 271 269 267 266 265 263 260 259 258 258 257 259 264 267 268 269 266 258 248 244 243 244 246 247 248 248 249 251 252 251 250 251 253 255 255 253 251 250 251 251 251 253 256 261
283 283 283 283 282 282 282 281 280 279 278 278 278 278 277 277 277 278 279 280 282 283 282 281 280 279 279 279 279 279 279 279 279 278 278 277 276 274 273 272 272 271 270 268 266 263 259 256 254 255 257 258 258 258 261 266 270 270 266 257 245 239 239 240 240 241 245 248 249 249 250 249 248 247 248 251 251 249 247 247 248 249 249 250 254 258 262
286 286 286 286 285 285 285 284 283 282 281 281 281 281 281 279 278 279 280 282 283 284 283 282 281 280 279 278 277 276 276 277 278 277 276 275 275 274 275 275 273 271 270 268 265 260 252 248 248 251 254 256 258 261 264 267 270 268 257 242 237 243 247 246 245 244 245 246 247 246 243 241 241 242 245 247 247 245 245 246 247 248 248 251 255 259 263
287 287 288 288 289 288 288 286 286 285 284 283 283 283 283 282 281 281 282 284 285 284 282 281 282 282 282 282 280 278 278 278 278 277 276 276 275 273 273 274 273 271 268 267 264 256 249 245 245 248 252 257 261 263 264 264 266 264 252 240 241 250 253 251 249 245 242 240 239 236 233 233 236 239 242 242 242 243 244 244 245 245 248 251 256 259 264
288 288 289 290 290 290 289 288 287 287 287 287 286 285 283 283 284 286 287 286 284 283 282 283 284 285 286 287 285 283 280 279 278 278 278 278 276 273 271 271 272 270 268 265 261 252 246 243 245 248 254 259 262 262 262 261 260 258 252 244 242 247 251 251 248 242 236 234 232 228 227 230 234 236 238 240 241 242 242 241 242 244 248 252 257 261 264
288 289 290 291 291 291 290 289 290 291 290 290 289 287 287 287 287 288 288 287 285 284 285 286 287 288 288 288 287 284 282 280 279 279 279 277 274 272 271 270 269 269 267 264 258 249 244 244 248 252 256 259 261 262 264 259 252 249 248 247 244 244 246 248 248 243 234 226 222 221 222 227 230 234 236 238 238 239 239 240 242 245 250 254 258 261 265
289 290 292 292 292 291 291 293 294 294 292 290 289 290 290 290 290 290 290 290 290 290 290 290 290 290 289 288 287 285 283 282 281 280 279 276 271 270 270 269 269 269 267 262 254 247 244 247 251 254 258 261 262 263 261 254 246 242 242 242 241 241 240 241 241 235 223 213 211 215 221 225 228 231 233 234 235 236 238 241 244 248 252 255 258 262 267
290 292 292 292 292 292 293 295 296 295 294 293 293 292 292 292 293 294 295 294 294 293 292 291 291 290 289 288 286 284 283 282 280 279 277 275 272 271 271 271 271 269 265 258 251 247 247 249 253 257 261 264 265 261 253 244 239 240 241 240 239 238 235 229 224 217 211 209 212 217 220 223 226 228 229 231 234 237 240 243 246 249 252 256 261 266 271
291 291 291 291 290 291 292 295 298 300 300 299 297 295 295 295 296 296 295 294 294 293 292 291 290 289 288 286 284 282 280 278 276 274 273 273 273 272 272 270 267 263 259 255 252 250 251 254 257 260 262 263 263 258 247 237 233 236 238 236 232 227 219 210 204 203 206 210 213 215 217 221 223 226 229 232 235 238 241 244 247 251 256 261 266 271 275
288 288 287 287 289 293 298 304 307 308 306 303 300 299 301 302 301 301 300 300 299 298 296 293 290 287 284 280 277 275 274 273 273 272 273 273 274 275 273 269 263 258 255 253 253 254 256 260 263 264 264 262 259 252 240 231 229 230 229 221 211 203 198 197 198 201 204 207 209 213 216 219 222 226 230 234 237 240 243 247 251 256 261 266 271 275 279
284 283 285 291 297 304 309 313 314 312 310 308 307 308 311 314 315 315 318 322 325 322 316 309 304 299 292 285 277 274 275 279 281 281 281 282 284 285 282 272 261 254 252 253 255 259 262 264 265 266 264 257 247 236 226 219 217 214 203 191 186 186 189 194 197 199 202 206 209 213 217 221 225 230 234 237 241 244 248 252 257 262 267 271 275 279 282
279 283 291 299 306 312 316 319 319 320 320 321 322 324 328 331 333 335 338 342 346 349 349 346 338 326 310 301 299 300 301 300 297 293 292 292 293 290 282 268 257 253 253 256 260 263 265 266 264 259 247 236 226 216 204 193 185 177 172 174 180 186 190 194 197 200 204 208 211 216 221 226 230 235 238 242 247 250 254 259 263 268 272 275 279 281 283
281 292 300 306 311 316 320 321 323 328 334 339 340 340 340 340 341 342 341 340 343 351 0 5 3 352 335 330 341 346 339 329 323 318 313 308 299 290 280 272 266 264 263 265 267 267 263 252 234 219 212 207 198 185 170 161 158 161 167 176 184 188 192 196 200 204 208 212 217 222 227 231 235 240 245 249 253 257 261 265 269 272 275 278 280 282 284
290 297 302 307 311 315 318 321 329 340 348 349 345 341 339 338 339 340 339 339 342 349 356 5 14 20 24 29 32 23 10 3 2 359 353 340 316 299 293 291 288 287 307 33 169 189 179 173 172 172 168 159 150 145 144 147 153 162 171 178 184 190 196 201 206 210 215 219 223 227 231 236 241 246 251 255 259 263 267 270 273 276 279 281 282 283 284
295 292 287 287 300 312 319 329 347 2 7 5 2 358 353 349 346 344 344 348 355 2 10 21 31 36 41 46 44 35 26 27 38 49 61 73 81 86 87 88 91 94 96 98 104 115 125 128 127 125 123 122 125 129 135 143 153 163 172 180 188 196 202 208 212 217 220 224 228 233 238 243 248 252 257 261 265 269 271 274 277 278 280 281 281 282 284
264 223 194 186 197 353 357 4 14 21 26 30 32 31 29 27 25 27 32 40 46 50 51 51 52 53 58 63 65 64 64 69 73 74 75 77 80 84 88 93 97 102 105 106 106 107 108 109 109 110 112 116 121 126 134 144 156 168 179 189 197 203 207 212 217 222 226 232 238 243 247 251 255 259 263 266 269 271 274 276 278 279 279 280 281 282 285
180 165 153 140 117 72 46 40 41 46 51 53 53 53 52 50 49 51 55 59 62 64 65 66 65 66 68 72 76 79 80 79 77 76 75 76 78 81 86 90 94 99 105 108 108 106 104 104 106 109 113 119 125 133 145 158 171 182 192 199 205 210 216 222 228 234 240 245 249 252 256 259 262 265 267 269 271 273 275 276 277 278 279 281 282 284 286
158 153 148 138 115 83 68 66 67 68 67 65 63 62 62 62 62 63 65 66 67 69 71 71 71 71 72 73 75 76 78 77 76 76 78 81 84 87 89 91 92 94 97 101 104 106 107 109 111 115 120 128 136 148 163 176 187 197 205 213 220 226 233 238 243 247 250 253 256 258 261 263 265 267 269 270 272 274 275 276 278 279 280 282 284 285 287
Height
5599 5601 5601 5606 5609 5609 5610 5608 5606 5609 5608 5605 5601 5597 5600 5604 5592 5583 5593 5599 5594 5598 5607 5609 5613 5618 5614 5612 5613 5615 5615 5613 5611 5612 5612 5610 5608 5601 5595 5595 5594 5594 5596 5596 5594 5593 5593 5593 5592 5591 5590 5589 5588 5586 5585 5584 5584 5584 5582 5580 5578 5576 5575 5573 5571 5569 5568 5566 5563 5561 5559 5557 5555 5552 5549 5546 5543 5541 5538 5536 5534 5532 5530 5528 5526 5524 5522
5587 5592 5594 5596 5597 5596 5599 5601 5600 5600 5599 5597 5595 5592 5594 5594 5585 5581 5587 5587 5585 5593 5599 5600 5603 5604 5601 5600 5603 5605 5605 5603 5604 5605 5602 5599 5596 5591 5587 5586 5586 5586 5586 5586 5585 5585 5585 5585 5584 5583 5582 5580 5579 5577 5576 5576 5576 5576 5574 5572 5570 5568 5566 5564 5563 5561 5558 5556 5553 5551 5550 5548 5546 5543 5541 5538 5535 5533 5530 5528 5525 5523 5521 5519 5517 5515 5513
5572 5582 5587 5586 5586 5584 5584 5588 5591 5592 5591 5593 5593 5591 5589 5586 5580 5579 5581 5575 5575 5588 5596 5594 5593 5592 5591 5593 5595 5597 5598 5595 5594 5595 5592 5587 5586 5583 5580 5578 5577 5577 5576 5575 5576 5577 5576 5577 5576 5575 5574 5572 5569 5569 5568 5568 5568 5568 5566 5564 5562 5560 5558 5556 5554 5552 5549 5547 5545 5543 5541 5539 5537 5535 5533 5530 5528 5525 5523 5520 5518 5516 5514 5511 5509 5507 5505
5556 5572 5577 5572 5574 5572 5566 5570 5581 5586 5587 5587 5586 5585 5584 5581 5576 5574 5572 5565 5567 5582 5589 5583 5582 5584 5584 5584 5587 5589 5588 5586 5585 5585 5581 5578 5576 5575 5574 5572 5570 5568 5568 5567 5568 5568 5568 5567 5567 5566 5565 5563 5561 5561 5560 5560 5560 5560 5558 5556 5554 5552 5550 5548 5546 5543 5541 5539 5537 5535 5533 5531 5530 5527 5525 5523 5520 5518 5515 5513 5510 5508 5506 5504 5501 5499 5496
5546 5561 5566 5561 5561 5551 5541 5557 5579 5586 5584 5580 5575 5573 5575 5578 5574 5566 5559 5559 5565 5574 5574 5570 5572 5577 5577 5576 5578 5579 5576 5576 5576 5575 5572 5569 5568 5567 5566 5566 5564 5561 5560 5559 5559 5560 5559 5558 5558 5557 5555 5554 5553 5552 5552 5552 5552 5551 5549 5547 5545 5543 5542 5540 5537 5535 5533 5531 5529 5527 5526 5524 5522 5519 5517 5514 5512 5509 5507 5505 5502 5500 5498 5496 5494 5491 5488
5536 5547 5555 5550 5537 5523 5527 5554 5575 5576 5574 5572 5566 5562 5565 5570 5568 5559 5551 5553 5560 5562 5561 5560 5562 5566 5569 5570 5570 5568 5565 5565 5568 5567 5564 5562 5560 5559 5558 5558 5556 5553 5551 5550 5550 5550 5550 5549 5549 5548 5546 5546 5545 5544 5544 5544 5543 5542 5540 5538 5536 5535 5533 5530 5528 5527 5525 5523 5521 5519 5517 5515 5513 5511 5508 5506 5503 5501 5499 5497 5495 5493 5491 5488 5485 5482 5479
5526 5534 5542 5529 5510 5510 5528 5545 5552 5556 5559 5560 5555 5550 5553 5557 5557 5554 5549 5546 5549 5551 5551 5552 5552 5553 5558 5560 5559 5557 5555 5555 5557 5556 5555 5555 5552 5551 5550 5549 5547 5545 5543 5541 5540 5541 5541 5540 5540 5540 5538 5537 5536 5535 5535 5534 5533 5533 5531 5530 5528 5526 5523 5521 5520 5518 5517 5515 5513 5511 5509 5506 5504 5502 5500 5498 5495 5493 5491 5489 5487 5485 5482 5479 5476 5473 5469
5519 5521 5520 5506 5499 5513 5524 5524 5530 5542 5547 5548 5543 5533 5534 5544 5546 5542 5539 5537 5538 5541 5542 5544 5544 5545 5547 5546 5545 5547 5548 5548 5548 5545 5544 5545 5543 5541 5541 5539 5538 5537 5535 5533 5531 5532 5532 5532 5531 5531 5529 5527 5526 5525 5525 5524 5524 5524 5523 5521 5519 5517 5514 5512 5511 5509 5508 5506 5504 5502 5500 5498 5496 5494 5492 5490 5488 5485 5483 5481 5478 5475 5472 5469 5466 5464 5461
5510 5508 5502 5496 5497 5503 5507 5510 5522 5534 5536 5538 5535 5517 5512 5527 5533 5529 5527 5527 5529 5533 5534 5535 5536 5536 5533 5529 5531 5538 5542 5542 5540 5538 5535 5534 5531 5530 5530 5529 5528 5527 5525 5523 5522 5522 5523 5523 5522 5521 5519 5517 5515 5514 5515 5515 5515 5515 5514 5512 5510 5507 5505 5503 5501 5500 5499 5497 5495 5493 5491 5490 5488 5486 5484 5482 5480 5478 5475 5473 5469 5466 5464 5460 5457 5455 5453
5501 5499 5492 5490 5487 5484 5493 5507 5517 5524 5525 5528 5527 5506 5490 5502 5516 5519 5519 5519 5519 5522 5523 5524 5526 5525 5518 5513 5519 5531 5535 5533 5531 5528 5525 5524 5521 5520 5519 5519 5518 5516 5513 5512 5512 5513 5513 5512 5512 5511 5509 5506 5505 5505 5506 5507 5507 5507 5505 5503 5500 5498 5496 5494 5493 5492 5490 5488 5486 5484 5483 5482 5480 5479 5477 5474 5472 5470 5467 5464 5462 5459 5456 5453 5450 5447 5445
5492 5491 5482 5480 5476 5474 5487 5502 5508 5513 5514 5518 5516 5492 5469 5482 5505 5511 5509 5508 5507 5507 5507 5509 5512 5510 5501 5499 5509 5520 5523 5521 5519 5516 5513 5513 5513 5512 5511 5509 5508 5506 5504 5502 5501 5501 5502 5502 5503 5502 5500 5498 5497 5497 5498 5498 5498 5498 5496 5493 5491 5490 5488 5486 5484 5483 5481 5480 5478 5477 5476 5474 5473 5471 5469 5466 5464 5461 5459 5456 5453 5450 5447 5444 5442 5439 5436
5481 5479 5471 5469 5469 5470 5480 5491 5497 5503 5506 5507 5499 5475 5461 5478 5497 5497 5493 5492 5490 5489 5490 5491 5493 5491 5488 5490 5497 5504 5507 5506 5505 5503 5501 5501 5502 5502 5501 5500 5498 5496 5494 5492 5490 5490 5491 5491 5492 5493 5492 5490 5489 5488 5488 5488 5489 5489 5486 5484 5483 5481 5479 5477 5476 5474 5474 5472 5471 5470 5468 5467 5465 5462 5460 5458 5456 5453 5450 5447 5444 5442 5439 5436 5433 5431 5427
5473 5470 5463 5460 5461 5467 5475 5481 5486 5492 5495 5491 5480 5468 5469 5478 5480 5476 5476 5475 5473 5475 5476 5475 5476 5476 5477 5480 5483 5487 5490 5489 5489 5489 5488 5488 5489 5490 5490 5491 5489 5486 5484 5481 5478 5478 5479 5480 5481 5483 5481 5480 5479 5478 5477 5478 5479 5478 5477 5475 5474 5472 5469 5468 5467 5466 5466 5464 5463 5462 5460 5458 5456 5454 5452 5449 5447 5444 5441 5438 5435 5432 5430 5427 5424 5422 5419
5465 5463 5458 5455 5457 5462 5468 5471 5476 5482 5481 5473 5465 5463 5464 5463 5460 5461 5464 5463 5462 5462 5462 5462 5463 5464 5466 5468 5469 5472 5474 5475 5475 5476 5475 5477 5478 5479 5480 5480 5478 5475 5473 5469 5466 5467 5470 5472 5472 5473 5471 5470 5469 5468 5468 5470 5469 5468 5467 5466 5464 5461 5459 5459 5458 5457 5457 5455 5453 5452 5450 5449 5447 5445 5442 5440 5437 5434 5431 5428 5426 5423 5421 5418 5415 5412 5410
5455 5453 5451 5450 5450 5453 5456 5460 5466 5471 5467 5458 5452 5450 5450 5450 5451 5452 5452 5453 5452 5450 5450 5453 5452 5452 5454 5455 5456 5459 5461 5462 5464 5463 5464 5466 5467 5467 5468 5467 5466 5464 5461 5459 5457 5458 5461 5462 5462 5462 5461 5460 5459 5459 5460 5461 5459 5458 5457 5455 5452 5451 5450 5450 5449 5448 5446 5444 5443 5442 5441 5439 5437 5435 5433 5430 5427 5424 5421 5418 5417 5415 5412 5409 5407 5403 5401
5444 5440 5442 5444 5443 5445 5449 5449 5451 5456 5453 5446 5441 5439 5440 5442 5441 5439 5439 5442 5441 5439 5440 5442 5441 5442 5443 5443 5444 5446 5448 5450 5451 5452 5453 5454 5454 5455 5456 5455 5455 5454 5451 5450 5450 5450 5451 5452 5452 5452 5451 5450 5450 5451 5451 5451 5449 5448 5446 5444 5442 5443 5442 5441 5440 5438 5436 5435 5434 5433 5431 5430 5428 5425 5423 5420 5416 5413 5410 5409 5407 5406 5403 5401 5398 5394 5392
5433 5427 5432 5438 5438 5439 5443 5442 5440 5441 5439 5434 5430 5427 5427 5428 5427 5428 5429 5429 5430 5430 5429 5428 5430 5432 5432 5433 5435 5436 5437 5439 5440 5440 5441 5443 5442 5443 5444 5444 5445 5444 5442 5441 5441 5440 5441 5441 5441 5441 5440 5439 5440 5441 5441 5440 5439 5437 5436 5434 5434 5433 5432 5432 5430 5428 5427 5426 5424 5423 5422 5420 5418 5416 5413 5411 5408 5404 5401 5400 5398 5397 5395 5392 5389 5386 5383
5421 5418 5425 5432 5431 5431 5436 5436 5433 5430 5424 5421 5418 5414 5413 5415 5416 5417 5418 5417 5419 5420 5417 5417 5419 5420 5420 5422 5424 5425 5426 5427 5428 5429 5430 5431 5431 5431 5432 5433 5434 5434 5433 5433 5432 5431 5431 5430 5430 5430 5429 5429 5430 5431 5429 5428 5427 5426 5425 5424 5424 5423 5422 5421 5421 5419 5418 5417 5415 5414 5413 5411 5409 5406 5404 5402 5399 5396 5394 5392 5390 5388 5387 5384 5381 5378 5375
5407 5409 5419 5424 5420 5420 5426 5426 5423 5417 5409 5405 5404 5401 5402 5405 5406 5407 5408 5408 5408 5408 5407 5408 5408 5408 5410 5410 5411 5413 5415 5415 5416 5418 5419 5420 5421 5420 5421 5422 5423 5424 5424 5425 5424 5423 5422 5421 5420 5420 5419 5419 5420 5419 5418 5416 5414 5413 5413 5413 5412 5412 5411 5410 5410 5409 5408 5407 5405 5404 5403 5402 5400 5397 5395 5393 5391 5388 5386 5384 5382 5380 5378 5375 5372 5370 5367
5395 5397 5407 5412 5407 5408 5414 5412 5406 5399 5392 5390 5393 5394 5395 5397 5397 5397 5396 5395 5395 5395 5396 5397 5396 5397 5400 5399 5398 5400 5402 5402 5404 5406 5407 5409 5410 5410 5410 5411 5412 5414 5415 5415 5415 5414 5413 5412 5411 5410 5409 5409 5409 5408 5407 5405 5403 5401 5401 5401 5401 5400 5400 5399 5398 5398 5397 5396 5395 5394 5393 5392 5390 5388 5386 5384 5382 5380 5378 5375 5373 5371 5369 5367 5364 5362 5359
5384 5387 5393 5393 5388 5391 5400 5398 5387 5378 5379 5384 5388 5388 5388 5387 5384 5383 5382 5381 5381 5382 5383 5384 5384 5384 5387 5389 5387 5387 5388 5389 5391 5393 5395 5397 5398 5399 5400 5400 5401 5403 5404 5404 5404 5403 5403 5402 5400 5399 5399 5398 5397 5396 5395 5393 5391 5390 5389 5389 5389 5389 5388 5388 5387 5387 5386 5385 5385 5383 5382 5381 5380 5379 5377 5374 5372 5370 5368 5366 5364 5362 5360 5358 5355 5353 5351
5368 5377 5378 5372 5366 5370 5382 5385 5373 5363 5368 5377 5379 5377 5376 5373 5370 5369 5369 5370 5371 5371 5371 5372 5371 5370 5373 5375 5374 5373 5375 5377 5378 5380 5383 5385 5386 5388 5388 5388 5389 5391 5392 5392 5392 5392 5392 5391 5389 5388 5389 5387 5386 5386 5384 5382 5380 5378 5377 5377 5377 5377 5377 5377 5376 5375 5374 5373 5373 5372 5371 5371 5369 5368 5367 5365 5363 5360 5358 5357 5355 5353 5351 5349 5347 5345 5343
5352 5358 5357 5352 5350 5353 5363 5369 5362 5354 5356 5361 5361 5362 5362 5359 5356 5355 5355 5357 5359 5360 5360 5360 5359 5357 5359 5360 5359 5359 5362 5364 5364 5366 5370 5372 5373 5375 5376 5375 5376 5379 5380 5380 5380 5381 5381 5381 5379 5379 5378 5376 5375 5374 5373 5371 5369 5367 5366 5365 5365 5365 5365 5365 5365 5365 5363 5362 5361 5360 5360 5360 5359 5358 5357 5355 5353 5351 5349 5347 5346 5344 5342 5340 5338 5336 5334
5335 5338 5338 5337 5339 5341 5346 5349 5347 5344 5344 5344 5343 5344 5345 5343 5342 5342 5341 5341 5343 5343 5345 5349 5349 5346 5345 5346 5346 5346 5348 5351 5352 5353 5355 5358 5360 5362 5362 5362 5363 5365 5367 5367 5368 5369 5369 5368 5367 5367 5365 5363 5361 5360 5359 5358 5356 5354 5354 5353 5352 5353 5353 5352 5353 5353 5351 5350 5349 5348 5349 5349 5348 5347 5346 5344 5342 5341 5340 5338 5337 5336 5334 5331 5329 5327 5325
5322 5326 5326 5325 5325 5327 5329 5331 5331 5330 5330 5329 5327 5327 5326 5325 5325 5326 5327 5327 5328 5328 5330 5334 5338 5338 5335 5333 5334 5334 5335 5337 5340 5341 5342 5344 5346 5346 5347 5349 5350 5351 5353 5354 5355 5356 5356 5354 5353 5352 5350 5349 5348 5346 5345 5344 5342 5340 5340 5340 5339 5339 5339 5339 5340 5340 5338 5337 5337 5336 5337 5338 5337 5336 5335 5333 5332 5331 5330 5329 5328 5327 5325 5323 5321 5319 5316
5313 5315 5314 5311 5311 5313 5313 5312 5313 5313 5313 5312 5313 5313 5313 5310 5308 5309 5310 5311 5314 5316 5318 5320 5323 5325 5324 5322 5322 5321 5320 5322 5326 5328 5328 5329 5331 5332 5332 5333 5335 5336 5337 5339 5340 5342 5342 5340 5339 5338 5337 5337 5335 5333 5330 5328 5326 5325 5325 5325 5325 5326 5327 5327 5327 5326 5325 5325 5324 5324 5325 5325 5326 5326 5325 5323 5322 5320 5320 5319 5319 5317 5316 5314 5312 5310 5308
5301 5301 5299 5296 5297 5300 5300 5297 5295 5296 5297 5297 5297 5298 5299 5298 5296 5296 5296 5297 5299 5302 5306 5306 5306 5308 5309 5310 5308 5306 5306 5308 5310 5312 5313 5314 5315 5317 5316 5316 5316 5317 5319 5321 5324 5326 5326 5325 5324 5323 5323 5323 5321 5318 5315 5313 5311 5311 5311 5311 5312 5313 5314 5315 5315 5313 5312 5312 5311 5312 5312 5313 5314 5314 5314 5313 5312 5311 5310 5310 5309 5308 5306 5305 5303 5302 5300
5290 5289 5286 5281 5280 5283 5287 5285 5282 5281 5282 5281 5281 5282 5283 5284 5284 5284 5284 5285 5285 5287 5289 5291 5289 5289 5291 5295 5294 5293 5293 5294 5294 5295 5297 5298 5298 5299 5299 5298 5297 5298 5299 5301 5305 5308 5309 5307 5305 5306 5307 5307 5306 5303 5301 5298 5296 5296 5296 5296 5297 5298 5300 5301 5301 5299 5298 5298 5298 5298 5300 5301 5302 5303 5304 5304 5303 5301 5301 5300 5299 5298 5297 5295 5294 5294 5292
5278 5276 5273 5269 5266 5266 5270 5271 5270 5269 5268 5267 5267 5268 5267 5267 5269 5271 5271 5270 5271 5271 5273 5274 5274 5272 5273 5275 5277 5277 5277 5278 5279 5280 5281 5282 5282 5281 5279 5278 5276 5277 5278 5281 5285 5288 5287 5286 5287 5288 5289 5290 5289 5287 5285 5282 5281 5280 5280 5280 5281 5282 5284 5285 5285 5284 5284 5284 5284 5286 5287 5289 5291 5293 5293 5293 5292 5291 5290 5289 5289 5288 5288 5287 5286 5285 5285
5268 5265 5261 5258 5255 5253 5254 5256 5256 5256 5255 5253 5252 5253 5253 5252 5254 5256 5258 5257 5257 5257 5259 5259 5260 5259 5258 5258 5259 5259 5258 5259 5261 5263 5263 5265 5265 5264 5262 5259 5257 5257 5260 5263 5265 5265 5265 5266 5267 5268 5270 5270 5270 5268 5267 5266 5264 5264 5264 5264 5264 5266 5267 5268 5268 5268 5269 5270 5272 5274 5276 5278 5280 5282 5282 5282 5281 5281 5280 5280 5279 5279 5278 5278 5278 5278 5278
5258 5256 5253 5249 5246 5243 5242 5242 5242 5242 5242 5241 5239 5240 5240 5239 5240 5242 5244 5244 5244 5244 5245 5245 5245 5245 5245 5244 5243 5242 5241 5240 5242 5244 5246 5247 5248 5247 5245 5242 5239 5240 5243 5245 5245 5245 5245 5246 5247 5249 5250 5251 5250 5249 5248 5247 5247 5247 5248 5247 5248 5250 5251 5252 5253 5254 5256 5258 5261 5263 5266 5268 5270 5271 5272 5272 5272 5272 5271 5271 5270 5270 5270 5271 5272 5271 5271
5248 5247 5245 5241 5237 5235 5234 5232 5231 5231 5231 5231 5230 5229 5229 5228 5228 5229 5230 5230 5231 5231 5231 5231 5231 5230 5230 5230 5229 5228 5227 5226 5227 5229 5231 5231 5232 5232 5230 5227 5225 5225 5227 5228 5228 5227 5227 5229 5230 5232 5233 5233 5232 5232 5231 5231 5232 5232 5232 5232 5234 5236 5238 5239 5241 5242 5245 5248 5251 5253 5256 5258 5260 5261 5262 5262 5262 5261 5261 5261 5261 5262 5263 5264 5264 5264 5264
5238 5238 5236 5233 5230 5228 5227 5226 5224 5222 5221 5222 5222 5221 5221 5219 5218 5218 5217 5218 5219 5220 5219 5219 5219 5218 5217 5217 5217 5216 5215 5215 5216 5217 5217 5218 5218 5218 5216 5214 5213 5214 5214 5215 5215 5214 5214 5215 5217 5218 5218 5218 5218 5218 5218 5218 5219 5220 5219 5220 5222 5224 5227 5229 5231 5234 5237 5239 5242 5244 5247 5248 5250 5251 5250 5250 5251 5252 5253 5254 5255 5255 5256 5257 5257 5258 5258
5230 5228 5227 5224 5221 5219 5218 5219 5218 5215 5214 5215 5215 5214 5213 5211 5210 5209 5208 5207 5208 5209 5209 5209 5209 5208 5207 5206 5206 5206 5205 5204 5205 5207 5207 5206 5207 5207 5205 5204 5204 5203 5203 5204 5204 5203 5204 5204 5205 5205 5206 5206 5206 5206 5207 5208 5209 5209 5210 5210 5211 5214 5217 5220 5223 5226 5228 5231 5233 5235 5236 5238 5239 5239 5240 5242 5244 5246 5247 5247 5248 5249 5249 5250 5251 5252 5252
5224 5221 5219 5216 5214 5211 5209 5208 5208 5207 5206 5206 5207 5207 5206 5204 5202 5201 5200 5200 5199 5200 5200 5199 5199 5198 5198 5197 5197 5197 5196 5195 5196 5197 5198 5198 5197 5196 5195 5195 5194 5194 5194 5193 5193 5193 5194 5194 5194 5195 5195 5195 5196 5197 5198 5199 5200 5201 5201 5200 5201 5204 5207 5210 5214 5217 5219 5221 5223 5225 5226 5228 5229 5231 5234 5237 5238 5239 5240 5241 5242 5243 5244 5245 5245 5246 5246
5216 5214 5212 5210 5207 5204 5201 5200 5199 5198 5197 5197 5198 5199 5198 5197 5195 5194 5193 5193 5192 5191 5191 5190 5190 5189 5189 5189 5189 5189 5188 5187 5187 5188 5189 5190 5189 5188 5187 5187 5186 5185 5185 5184 5183 5183 5184 5183 5184 5184 5184 5186 5187 5189 5190 5191 5192 5192 5192 5192 5193 5196 5199 5202 5205 5208 5210 5211 5214 5216 5218 5220 5222 5225 5228 5230 5231 5232 5234 5235 5236 5238 5238 5239 5240 5240 5240
5210 5207 5205 5203 5199 5197 5195 5192 5190 5190 5190 5190 5189 5189 5189 5189 5188 5186 5186 5186 5185 5184 5182 5182 5181 5181 5181 5181 5181 5181 5180 5180 5180 5180 5181 5181 5180 5179 5179 5179 5178 5177 5176 5175 5174 5174 5173 5172 5172 5174 5176 5178 5180 5181 5183 5184 5185 5185 5185 5185 5187 5189 5192 5195 5197 5200 5202 5204 5206 5208 5210 5213 5216 5219 5221 5223 5225 5227 5229 5230 5231 5232 5233 5233 5234 5235 5235
5204 5201 5198 5196 5193 5190 5188 5185 5183 5182 5182 5183 5183 5182 5180 5180 5179 5179 5178 5178 5177 5176 5174 5174 5173 5173 5173 5173 5173 5173 5172 5172 5171 5172 5172 5172 5171 5171 5171 5170 5169 5168 5167 5166 5165 5164 5163 5163 5164 5166 5169 5171 5173 5174 5176 5177 5178 5178 5179 5180 5181 5183 5186 5188 5190 5192 5195 5197 5199 5202 5205 5208 5211 5214 5216 5218 5220 5222 5223 5225 5226 5227 5228 5229 5229 5229 5230
5198 5195 5192 5190 5187 5184 5181 5179 5177 5175 5174 5175 5176 5175 5174 5172 5172 5171 5171 5171 5170 5168 5166 5166 5165 5165 5165 5164 5164 5164 5164 5163 5163 5163 5163 5163 5162 5162 5162 5161 5160 5159 5158 5157 5156 5155 5155 5156 5159 5161 5163 5165 5166 5167 5169 5170 5171 5173 5174 5175 5176 5179 5181 5183 5185 5187 5189 5191 5194 5198 5201 5204 5207 5210 5212 5214 5216 5217 5219 5220 5221 5222 5223 5224 5224 5225 5225
5191 5189 5186 5184 5181 5178 5175 5173 5172 5171 5170 5169 5169 5169 5168 5166 5165 5165 5164 5163 5162 5160 5159 5158 5157 5156 5155 5155 5155 5155 5155 5154 5154 5154 5155 5155 5154 5154 5153 5152 5151 5151 5150 5150 5149 5149 5150 5152 5154 5156 5157 5158 5159 5160 5162 5163 5165 5167 5168 5170 5172 5174 5176 5178 5180 5182 5185 5188 5191 5195 5198 5201 5204 5206 5207 5209 5211 5213 5214 5215 5217 5218 5219 5219 5220 5220 5220
5185 5183 5180 5178 5175 5173 5171 5168 5167 5167 5166 5165 5164 5163 5162 5160 5159 5158 5157 5155 5154 5152 5151 5150 5148 5147 5147 5147 5146 5146 5147 5146 5146 5146 5147 5147 5146 5146 5145 5144 5144 5143 5144 5143 5143 5144 5146 5148 5149 5150 5151 5152 5153 5154 5155 5157 5159 5161 5163 5165 5167 5169 5171 5174 5176 5178 5181 5184 5188 5192 5195 5198 5200 5202 5204 5205 5207 5209 5210 5211 5212 5213 5214 5215 5216 5216 5215
5180 5177 5175 5173 5170 5168 5167 5165 5164 5164 5163 5163 5161 5159 5157 5155 5153 5151 5149 5148 5146 5144 5143 5142 5140 5140 5139 5139 5139 5139 5139 5139 5139 5139 5139 5139 5139 5139 5138 5137 5137 5138 5138 5138 5138 5140 5141 5143 5144 5145 5145 5146 5147 5148 5149 5151 5154 5156 5159 5161 5163 5165 5167 5169 5172 5176 5179 5183 5187 5190 5192 5194 5196 5198 5200 5202 5203 5204 5205 5207 5208 5209 5210 5211 5210 5210 5209
5174 5172 5169 5168 5167 5165 5164 5163 5163 5162 5161 5160 5157 5154 5152 5151 5148 5145 5143 5141 5139 5138 5137 5135 5134 5133 5133 5133 5133 5133 5133 5133 5133 5133 5133 5133 5133 5133 5132 5132 5132 5132 5132 5133 5135 5136 5137 5138 5139 5140 5140 5141 5142 5143 5144 5147 5149 5152 5155 5157 5159 5161 5164 5167 5171 5175 5178 5182 5185 5187 5189 5192 5193 5195 5196 5198 5199 5200 5202 5203 5204 5205 5205 5205 5204 5203 5203
5168 5167 5165 5165 5164 5164 5163 5162 5161 5159 5158 5156 5153 5151 5148 5146 5144 5141 5139 5137 5135 5134 5132 5131 5129 5129 5128 5128 5128 5128 5128 5128 5128 5128 5128 5128 5128 5127 5127 5127 5127 5127 5129 5130 5131 5132 5133 5134 5134 5135 5135 5136 5137 5138 5140 5143 5145 5148 5151 5153 5156 5159 5162 5166 5170 5173 5177 5180 5182 5185 5187 5189 5190 5192 5193 5195 5196 5197 5198 5199 5200 5200 5200 5199 5198 5197 5196
5164 5164 5163 5163 5163 5162 5161 5160 5159 5157 5155 5153 5151 5148 5146 5144 5141 5139 5137 5135 5133 5131 5130 5128 5127 5126 5125 5124 5124 5124 5124 5124 5124 5123 5124 5124 5124 5123 5123 5123 5124 5125 5126 5127 5128 5128 5129 5129 5130 5131 5131 5132 5133 5135 5137 5139 5142 5145 5149 5152 5155 5159 5162 5166 5169 5172 5175 5178 5180 5182 5184 5186 5188 5189 5190 5191 5193 5194 5194 5195 5194 5194 5194 5193 5192 5191 5190
5162 5162 5162 5161 5161 5160 5160 5159 5157 5155 5153 5151 5149 5147 5145 5143 5140 5138 5136 5134 5132 5130 5128 5127 5125 5124 5123 5123 5122 5122 5121 5121 5121 5121 5121 5121 5121 5121 5122 5122 5123 5123 5123 5124 5124 5125 5125 5126 5126 5127 5129 5130 5131 5133 5135 5138 5141 5144 5148 5152 5155 5159 5162 5165 5168 5171 5174 5176 5179 5181 5182 5184 5185 5186 5187 5188 5189 5189 5190 5189 5189 5189 5188 5187 5187 5185 5184
5160 5160 5160 5160 5159 5159 5158 5157 5156 5154 5153 5151 5149 5147 5145 5142 5140 5137 5135 5134 5132 5130 5128 5126 5125 5124 5123 5122 5122 5121 5121 5121 5120 5120 5120 5120 5120 5120 5120 5120 5121 5121 5121 5121 5121 5121 5122 5123 5124 5126 5127 5128 5130 5132 5135 5138 5141 5145 5149 5153 5156 5159 5162 5165 5168 5171 5173 5175 5177 5178 5180 5181 5182 5183 5184 5184 5185 5185 5184 5184 5184 5183 5183 5182 5181 5180 5179
5158 5158 5158 5158 5158 5158 5157 5156 5155 5154 5152 5151 5149 5147 5145 5143 5141 5139 5137 5135 5133 5131 5129 5127 5126 5124 5123 5122 5122 5122 5121 5121 5120 5120 5119 5119 5119 5119 5119 5119 5120 5120 5120 5120 5120 5121 5122 5123 5124 5125 5127 5128 5130 5133 5136 5140 5143 5147 5150 5153 5157 5160 5162 5165 5168 5170 5172 5173 5175 5176 5177 5178 5179 5179 5180 5180 5180 5180 5180 5179 5179 5178 5177 5176 5175 5174 5173
5156 5156 5157 5157 5157 5157 5157 5156 5155 5154 5152 5151 5149 5148 5146 5144 5142 5140 5139 5137 5135 5133 5131 5129 5128 5126 5125 5124 5123 5123 5122 5122 5121 5121 5120 5120 5120 5120 5120 5120 5121 5121 5121 5122 5123 5124 5124 5125 5126 5127 5129 5131 5134 5137 5140 5143 5146 5149 5152 5155 5158 5160 5163 5165 5167 5169 5170 5171 5172 5173 5174 5175 5175 5175 5176 5175 5175 5175 5174 5174 5173 5173 5172 5171 5169 5168 5167
5154 5155 5155 5156 5156 5156 5156 5155 5154 5154 5153 5151 5150 5148 5147 5146 5144 5142 5141 5139 5137 5135 5133 5132 5130 5129 5128 5127 5126 5125 5125 5124 5124 5124 5124 5123 5123 5123 5123 5123 5123 5124 5124 5125 5126 5126 5127 5128 5129 5131 5133 5135 5138 5140 5143 5146 5148 5151 5153 5156 5158 5160 5162 5164 5165 5167 5168 5169 5169 5170 5171 5171 5171 5171 5171 5171 5170 5170 5169 5168 5168 5167 5166 5165 5164 5162 5161
5153 5154 5154 5155 5155 5156 5155 5155 5154 5154 5153 5152 5151 5150 5149 5147 5146 5145 5143 5141 5140 5138 5137 5135 5134 5133 5132 5131 5130 5129 5129 5128 5128 5128 5128 5127 5127 5127 5127 5127 5127 5128 5128 5128 5128 5129 5130 5132 5133 5135 5137 5139 5141 5143 5146 5148 5150 5152 5154 5156 5158 5160 5161 5163 5164 5164 5165 5166 5166 5166 5167 5167 5166 5166 5166 5166 5165 5164 5164 5163 5162 5161 5160 5158 5157 5156 5154
5152 5153 5154 5155 5155 5155 5155 5155 5154 5154 5153 5153 5152 5151 5150 5149 5148 5147 5145 5144 5143 5141 5140 5139 5138 5137 5136 5135 5134 5134 5133 5132 5132 5132 5132 5132 5132 5131 5131 5131 5131 5132 5132 5132 5132 5133 5134 5135 5137 5139 5140 5142 5144 5146 5148 5150 5152 5153 5155 5156 5158 5159 5160 5160 5161 5161 5162 5162 5162 5162 5162 5162 5161 5161 5161 5160 5159 5159 5158 5157 5156 5155 5153 5152 5150 5149 5147